IRIS

Last updated on Wed Sep 17 2025 00:03:34 GMT+0000 (Coordinated Universal Time)

1 39197U 13033A 25259.54442040 .00001226 00000+0 15011-3 0 9996 2 39197 97.9486 94.5761 0025805 131.5247 228.8187 14.84819868659754
UTC large
Height (km)
Speed (km/s)
/
Latitude / Longitude
Inclination (degrees)
Orbital Period (minutes)
Azimuth
Elevation
Range (km)
Doppler Factor

Next 0 passes for location: London (51.5072 / 0.1276)

Sorry there are no passes over London.